When you browse on this site, cookies collect data to enhance your experience and personalize the content and advertising you see.
Visit our Privacy Policy to learn more. By continuing to use the site, you agree to this use of cookies and data.

Stündliche Wetter Benguela

Heute, 15 Juli, Mittwoch

Zeit Temperatur Niederschläge Wind Luftdruck Luftfeuchtigkeit
00:00 +18°C° 0 mm 0 m/S 759 mmHg 92%
01:00 +17°C° 0 mm 0 m/S 759 mmHg 92%
02:00 +17°C° 0 mm 0 m/S 759 mmHg 92%
03:00 +17°C° 0 mm 0 m/S 759 mmHg 92%
04:00 +17°C° 0 mm 0 m/S 759 mmHg 92%
05:00 +19°C° 0 mm 1 m/S 759 mmHg 91%
06:00 +20°C° 0 mm 1 m/S 760 mmHg 90%
07:00 +19°C° 0 mm 2 m/S 761 mmHg 88%
08:00 +23°C° 0 mm 2 m/S 760 mmHg 73%
09:00 +26°C° 0 mm 1 m/S 760 mmHg 58%
10:00 +29°C° 0 mm 1 m/S 760 mmHg 43%
11:00 +30°C° 0 mm 2 m/S 760 mmHg 45%
12:00 +30°C° 0 mm 3 m/S 759 mmHg 48%
13:00 +32°C° 0 mm 4 m/S 759 mmHg 51%
14:00 +30°C° 0 mm 4 m/S 758 mmHg 52%
15:00 +30°C° 0 mm 4 m/S 758 mmHg 54%
16:00 +29°C° 0 mm 3 m/S 757 mmHg 55%
17:00 +27°C° 0 mm 3 m/S 758 mmHg 67%
18:00 +24°C° 0 mm 2 m/S 759 mmHg 79%
19:00 +21°C° 0 mm 2 m/S 759 mmHg 91%
20:00 +20°C° 0 mm 2 m/S 760 mmHg 92%
21:00 +20°C° 0 mm 2 m/S 760 mmHg 92%
22:00 +20°C° 0 mm 1 m/S 760 mmHg 93%
23:00 +20°C° 0 mm 1 m/S 760 mmHg 90%

Morgen, 16 Juli, Donnerstag

Zeit Temperatur Niederschläge Wind Luftdruck Luftfeuchtigkeit
00:00 +20°C° 0 mm 1 m/S 760 mmHg 88%
01:00 +20°C° 0 mm 1 m/S 760 mmHg 86%
02:00 +19°C° 0 mm 1 m/S 760 mmHg 82%
03:00 +19°C° 0 mm 1 m/S 760 mmHg 78%
04:00 +18°C° 0 mm 1 m/S 760 mmHg 75%
05:00 +19°C° 0 mm 1 m/S 761 mmHg 69%
06:00 +19°C° 0 mm 1 m/S 761 mmHg 64%
07:00 +20°C° 0 mm 1 m/S 762 mmHg 59%
08:00 +23°C° 0 mm 1 m/S 762 mmHg 48%
09:00 +27°C° 0 mm 1 m/S 761 mmHg 37%
10:00 +30°C° 0 mm 1 m/S 761 mmHg 25%
11:00 +31°C° 0 mm 2 m/S 760 mmHg 30%
12:00 +33°C° 0 mm 3 m/S 760 mmHg 35%
13:00 +33°C° 0 mm 4 m/S 759 mmHg 40%
14:00 +32°C° 0 mm 4 m/S 759 mmHg 45%
15:00 +30°C° 0 mm 3 m/S 758 mmHg 49%
16:00 +29°C° 0 mm 3 m/S 758 mmHg 53%
17:00 +26°C° 0 mm 2 m/S 759 mmHg 65%
18:00 +24°C° 0 mm 2 m/S 759 mmHg 77%
19:00 +21°C° 0 mm 1 m/S 760 mmHg 89%
20:00 +21°C° 0 mm 1 m/S 761 mmHg 90%
21:00 +20°C° 0 mm 1 m/S 761 mmHg 91%
22:00 +20°C° 0 mm 1 m/S 761 mmHg 92%
23:00 +20°C° 0 mm 1 m/S 761 mmHg 91%

übermorgen, 17 Juli, Freitag

Zeit Temperatur Niederschläge Wind Luftdruck Luftfeuchtigkeit
00:00 +19°C° 0 mm 1 m/S 761 mmHg 89%
01:00 +19°C° 0 mm 1 m/S 761 mmHg 87%
02:00 +19°C° 0 mm 1 m/S 761 mmHg 87%
03:00 +19°C° 0 mm 1 m/S 761 mmHg 87%
04:00 +18°C° 0 mm 1 m/S 761 mmHg 87%
05:00 +19°C° 0 mm 1 m/S 761 mmHg 83%
06:00 +19°C° 0 mm 1 m/S 761 mmHg 80%
07:00 +19°C° 0 mm 1 m/S 762 mmHg 76%
08:00 +22°C° 0 mm 1 m/S 762 mmHg 65%
09:00 +25°C° 0 mm 1 m/S 762 mmHg 55%
10:00 +28°C° 0 mm 1 m/S 761 mmHg 44%
11:00 +29°C° 0 mm 2 m/S 761 mmHg 44%
12:00 +30°C° 0 mm 3 m/S 760 mmHg 43%
13:00 +32°C° 0 mm 4 m/S 759 mmHg 43%
14:00 +30°C° 0 mm 4 m/S 759 mmHg 47%
15:00 +29°C° 0 mm 3 m/S 758 mmHg 50%
16:00 +28°C° 0 mm 3 m/S 758 mmHg 54%
17:00 +26°C° 0 mm 2 m/S 758 mmHg 66%
18:00 +23°C° 0 mm 2 m/S 759 mmHg 78%
19:00 +21°C° 0 mm 1 m/S 759 mmHg 90%
20:00 +21°C° 0 mm 1 m/S 760 mmHg 90%
21:00 +20°C° 0 mm 1 m/S 760 mmHg 91%
22:00 +20°C° 0 mm 1 m/S 760 mmHg 91%
23:00 +20°C° 0 mm 1 m/S 760 mmHg 90%

18 Juli, Samstag

Zeit Temperatur Niederschläge Wind Luftdruck Luftfeuchtigkeit
00:00 +20°C° 0 mm 1 m/S 760 mmHg 88%
01:00 +19°C° 0 mm 1 m/S 760 mmHg 87%
02:00 +19°C° 0 mm 1 m/S 760 mmHg 87%
03:00 +19°C° 0 mm 1 m/S 760 mmHg 87%
04:00 +18°C° 0 mm 1 m/S 760 mmHg 87%
05:00 +19°C° 0 mm 1 m/S 760 mmHg 81%
06:00 +19°C° 0 mm 1 m/S 761 mmHg 75%
07:00 +20°C° 0 mm 1 m/S 761 mmHg 69%
08:00 +22°C° 0 mm 1 m/S 761 mmHg 60%
09:00 +25°C° 0 mm 2 m/S 761 mmHg 51%
10:00 +28°C° 0 mm 2 m/S 761 mmHg 42%
11:00 +29°C° 0 mm 2 m/S 760 mmHg 41%
12:00 +31°C° 0 mm 3 m/S 759 mmHg 40%
13:00 +33°C° 0 mm 4 m/S 758 mmHg 39%
14:00 +32°C° 0 mm 4 m/S 758 mmHg 44%
15:00 +30°C° 0 mm 3 m/S 757 mmHg 48%
16:00 +29°C° 0 mm 3 m/S 757 mmHg 53%
17:00 +26°C° 0 mm 3 m/S 757 mmHg 65%
18:00 +24°C° 0 mm 2 m/S 758 mmHg 77%
19:00 +21°C° 0 mm 1 m/S 759 mmHg 89%
20:00 +21°C° 0 mm 1 m/S 759 mmHg 89%
21:00 +19°C° 0 mm 2 m/S 760 mmHg 89%
22:00 +19°C° 0 mm 2 m/S 760 mmHg 90%
23:00 +20°C° 0 mm 1 m/S 760 mmHg 88%

19 Juli, Sonntag

Zeit Temperatur Niederschläge Wind Luftdruck Luftfeuchtigkeit
00:00 +19°C° 0 mm 1 m/S 760 mmHg 87%
01:00 +17°C° 0 mm 0 m/S 760 mmHg 85%
02:00 +17°C° 0 mm 0 m/S 760 mmHg 85%
03:00 +18°C° 0 mm 1 m/S 760 mmHg 85%
04:00 +18°C° 0 mm 1 m/S 760 mmHg 85%
05:00 +19°C° 0 mm 1 m/S 760 mmHg 81%
06:00 +19°C° 0 mm 1 m/S 761 mmHg 77%
07:00 +19°C° 0 mm 1 m/S 761 mmHg 74%
08:00 +21°C° 0 mm 2 m/S 761 mmHg 63%
09:00 +25°C° 0 mm 2 m/S 761 mmHg 53%
10:00 +28°C° 0 mm 2 m/S 761 mmHg 43%
11:00 +29°C° 0 mm 3 m/S 760 mmHg 41%
12:00 +30°C° 0 mm 3 m/S 759 mmHg 40%
13:00 +33°C° 0 mm 3 m/S 758 mmHg 39%
14:00 +31°C° 0 mm 3 m/S 758 mmHg 43%
15:00 +30°C° 0 mm 4 m/S 758 mmHg 47%
16:00 +29°C° 0 mm 4 m/S 757 mmHg 51%
17:00 +27°C° 0 mm 3 m/S 758 mmHg 63%
18:00 +24°C° 0 mm 3 m/S 758 mmHg 75%
19:00 +20°C° 0 mm 2 m/S 758 mmHg 87%
20:00 +20°C° 0 mm 2 m/S 759 mmHg 86%
21:00 +20°C° 0 mm 2 m/S 759 mmHg 86%
22:00 +19°C° 0 mm 2 m/S 760 mmHg 85%
23:00 +20°C° 0 mm 1 m/S 760 mmHg 83%

20 Juli, Montag

Zeit Temperatur Niederschläge Wind Luftdruck Luftfeuchtigkeit
00:00 +20°C° 0 mm 1 m/S 760 mmHg 82%
01:00 +19°C° 0 mm 1 m/S 760 mmHg 80%
02:00 +19°C° 0 mm 1 m/S 760 mmHg 80%
03:00 +19°C° 0 mm 1 m/S 760 mmHg 80%
04:00 +17°C° 0 mm 2 m/S 759 mmHg 81%
05:00 +19°C° 0 mm 1 m/S 760 mmHg 76%
06:00 +19°C° 0 mm 1 m/S 760 mmHg 72%
07:00 +20°C° 0 mm 1 m/S 761 mmHg 67%
08:00 +23°C° 0 mm 1 m/S 761 mmHg 56%
09:00 +26°C° 0 mm 2 m/S 761 mmHg 46%
10:00 +29°C° 0 mm 2 m/S 761 mmHg 35%
11:00 +30°C° 0 mm 3 m/S 760 mmHg 38%
12:00 +30°C° 0 mm 3 m/S 759 mmHg 42%
13:00 +32°C° 0 mm 4 m/S 759 mmHg 45%
14:00 +30°C° 0 mm 4 m/S 758 mmHg 48%
15:00 +29°C° 0 mm 3 m/S 758 mmHg 50%
16:00 +29°C° 0 mm 3 m/S 757 mmHg 53%
17:00 +26°C° 0 mm 3 m/S 758 mmHg 65%
18:00 +24°C° 0 mm 3 m/S 758 mmHg 77%
19:00 +20°C° 0 mm 2 m/S 759 mmHg 89%
20:00 +20°C° 0 mm 2 m/S 759 mmHg 90%
21:00 +19°C° 0 mm 2 m/S 760 mmHg 90%
22:00 +20°C° 0 mm 1 m/S 760 mmHg 91%
23:00 +20°C° 0 mm 1 m/S 760 mmHg 88%
Mehr zeigen